N9VPV Weather Reports


Display with metric or nautical units.
time (UTC)temp
F
wind
direction
speed
MPH
gust
MPH
rain 1hr
in
rain 24hr
in
rain mn
in
humidity
%
barometer
mb
20190523012447 70 238 0.0 0.0 0.00 0.74 0.06 87 1009.0
20190523011434 70 238 0.0 0.0 0.00 0.74 0.06 86 1009.4
20190523010943 70 238 0.0 0.0 0.00 0.77 0.06 86 1009.3
20190523005443 71 238 0.0 2.0 0.00 0.77 0.06 84 1009.4
20190523004935 71 238 1.0 3.0 0.00 0.77 0.06 83 1009.5
20190523003939 71 238 2.0 5.0 0.00 0.77 0.06 82 1009.3
20190523002927 72 232 2.0 6.0 0.00 0.77 0.06 82 1009.7
20190523001936 72 215 2.0 4.0 0.00 0.77 0.06 81 1009.6
20190523001434 72 227 2.0 5.0 0.00 0.77 0.06 81 1009.5
20190523000944 72 228 2.0 5.0 0.00 0.77 0.06 81 1009.3
20190523000435 72 232 2.0 5.0 0.00 0.77 0.06 81 1009.4
20190522235945 72 219 2.0 4.0 0.00 0.77 0.06 81 1009.4
20190522235442 72 194 2.0 4.0 0.01 0.77 0.06 81 1009.4
20190522234938 72 192 1.0 6.0 0.01 0.77 0.06 80 1009.2
20190522234436 72 161 2.0 6.0 0.05 0.77 0.06 80 1009.1
20190522232429 72 207 2.0 5.0 0.06 0.77 0.06 80 1009.7
20190522231940 72 202 3.0 7.0 0.06 0.77 0.06 80 1009.6
20190522231438 72 232 1.0 11.0 0.06 0.77 0.06 79 1009.3
20190522230929 73 204 3.0 12.0 0.06 0.77 0.06 78 1009.6
20190522230438 73 143 4.0 12.0 0.06 0.77 0.06 79 1009.6
20190522225927 73 193 2.0 12.0 0.06 0.77 0.06 77 1009.5
20190522225445 74 226 4.0 13.0 0.05 0.76 0.05 72 1009.4
20190522224934 76 186 5.0 13.0 0.05 0.76 0.05 68 1009.1
20190522224432 79 142 6.0 11.0 0.01 0.72 0.01 63 1009.1
20190522223944 79 194 4.0 10.0 0.00 0.71 0.00 58 1008.6
20190522223442 80 138 5.0 13.0 0.00 0.71 0.00 57 1008.6
20190522222446 81 170 5.0 12.0 0.00 0.71 0.00 55 1008.7
20190522221937 81 185 6.0 16.0 0.00 0.71 0.00 56 1008.8
20190522220931 81 156 4.0 18.0 0.00 0.71 0.00 57 1008.8
20190522220443 81 198 7.0 18.0 0.00 0.71 0.00 56 1008.9
20190522215933 81 130 5.0 18.0 0.00 0.71 0.00 57 1008.8
20190522215430 81 176 6.0 15.0 0.00 0.71 0.00 57 1008.7
20190522214940 80 203 5.0 15.0 0.00 0.71 0.00 59 1008.9
20190522214439 80 186 5.0 18.0 0.00 0.71 0.00 58 1008.9
20190522213928 80 198 10.0 18.0 0.00 0.71 0.00 58 1008.9
20190522213446 80 194 6.0 15.0 0.00 0.71 0.00 58 1008.9
20190522212937 80 205 8.0 24.0 0.00 0.71 0.00 57 1008.8
20190522211442 81 180 8.0 16.0 0.00 0.71 0.00 56 1008.8
20190522210931 81 146 5.0 19.0 0.00 0.71 0.00 57 1008.9
20190522210442 81 188 9.0 22.0 0.00 0.71 0.00 56 1008.9
20190522205934 81 157 9.0 21.0 0.00 0.71 0.00 54 1008.8
20190522205432 81 173 9.0 20.0 0.00 0.71 0.00 56 1008.9
20190522204944 81 167 10.0 20.0 0.00 0.71 0.00 53 1008.8
20190522204440 81 247 9.0 21.0 0.00 0.71 0.00 55 1008.9
20190522203934 81 189 9.0 24.0 0.00 0.71 0.00 54 1008.9
20190522202941 80 165 9.0 27.0 0.00 0.71 0.00 53 1008.9
20190522201930 80 192 8.0 24.0 0.00 0.71 0.00 51 1009.0
20190522201428 80 192 10.0 24.0 0.00 0.71 0.00 51 1008.9
20190522200937 80 211 7.0 23.0 0.00 0.71 0.00 52 1009.0
20190522200428 80 225 9.0 18.0 0.00 0.71 0.00 51 1009.1
20190522194945 80 188 10.0 25.0 0.00 0.71 0.00 51 1009.0
20190522194443 80 169 9.0 24.0 0.00 0.71 0.00 50 1009.0
20190522193934 80 153 10.0 24.0 0.00 0.71 0.00 49 1009.0
20190522193431 80 200 8.0 22.0 0.00 0.71 0.00 51 1009.0
20190522192941 80 198 7.0 21.0 0.00 0.71 0.00 49 1008.9
20190522192438 80 178 8.0 19.0 0.00 0.71 0.00 50 1008.8
20190522191428 79 168 8.0 20.0 0.00 0.71 0.00 49 1008.9
20190522190940 79 234 10.0 20.0 0.00 0.71 0.00 47 1008.9
20190522190435 79 191 9.0 18.0 0.00 0.71 0.00 50 1008.9
20190522185943 79 231 8.0 23.0 0.00 0.71 0.00 50 1008.9
20190522185440 79 192 10.0 23.0 0.00 0.71 0.00 49 1009.0
20190522184930 79 233 7.0 21.0 0.00 0.71 0.00 51 1008.9
20190522184446 79 186 9.0 21.0 0.00 0.71 0.00 50 1008.9
20190522183937 79 184 9.0 21.0 0.00 0.71 0.00 50 1008.8
20190522183434 79 209 7.0 20.0 0.00 0.71 0.00 51 1008.8
20190522182945 78 195 7.0 20.0 0.00 0.71 0.00 51 1008.8
20190522182442 78 242 7.0 19.0 0.00 0.71 0.00 53 1008.9
20190522181932 78 179 10.0 25.0 0.00 0.71 0.00 50 1008.8
20190522181428 78 189 7.0 15.0 0.00 0.71 0.00 53 1008.9
20190522180939 77 172 7.0 18.0 0.00 0.71 0.00 56 1008.8
20190522180431 77 171 6.0 21.0 0.00 0.71 0.00 55 1008.8
20190522175943 77 178 11.0 21.0 0.00 0.71 0.00 54 1008.8
20190522175440 77 161 5.0 17.0 0.00 0.71 0.00 59 1008.9
20190522173936 76 171 7.0 18.0 0.00 0.71 0.00 58 1008.9
20190522173432 76 151 9.0 20.0 0.00 0.71 0.00 57 1008.9
20190522172927 75 217 5.0 20.0 0.00 0.71 0.00 60 1008.9
20190522172441 75 173 8.0 20.0 0.00 0.71 0.00 60 1008.9
20190522171931 75 146 8.0 20.0 0.00 0.71 0.00 62 1008.8
20190522171428 75 165 6.0 17.0 0.00 0.71 0.00 64 1008.7
20190522170430 74 195 7.0 18.0 0.00 0.71 0.00 64 1008.8
20190522165940 74 150 6.0 19.0 0.00 0.71 0.00 62 1008.7
20190522165438 74 171 9.0 20.0 0.00 0.71 0.00 62 1008.9
20190522164930 73 221 12.0 20.0 0.00 0.71 0.00 62 1008.8
20190522164427 73 179 6.0 25.0 0.00 0.71 0.00 63 1008.9
20190522163433 73 164 7.0 19.0 0.00 0.71 0.00 64 1008.8
20190522162945 73 157 10.0 17.0 0.00 0.71 0.00 64 1008.9
20190522161431 72 163 8.0 16.0 0.00 0.71 0.00 65 1008.5
20190522160940 72 171 7.0 14.0 0.00 0.71 0.00 67 1008.4
20190522160432 72 227 7.0 18.0 0.00 0.71 0.00 67 1008.4
20190522155942 71 202 8.0 18.0 0.00 0.71 0.00 67 1008.3
20190522155441 71 112 7.0 14.0 0.00 0.71 0.00 67 1008.3
20190522154932 71 175 7.0 19.0 0.00 0.71 0.00 68 1008.2
20190522154432 71 215 4.0 25.0 0.00 0.71 0.00 69 1008.2
20190522153942 71 126 6.0 13.0 0.00 0.71 0.00 70 1008.1
20190522152426 69 196 7.0 20.0 0.00 0.71 0.00 73 1007.9
20190522150945 69 110 5.0 19.0 0.00 0.71 0.00 73 1007.8
20190522150434 68 189 7.0 19.0 0.00 0.71 0.00 73 1007.8
20190522144933 67 184 6.0 17.0 0.00 0.71 0.00 74 1007.7
20190522144432 67 140 10.0 17.0 0.00 0.71 0.00 73 1007.7
20190522143944 67 196 5.0 15.0 0.00 0.71 0.00 76 1007.6
20190522143441 66 196 7.0 15.0 0.00 0.71 0.00 76 1007.5
20190522142931 66 169 8.0 16.0 0.00 0.71 0.00 77 1007.6
20190522142428 66 138 5.0 11.0 0.00 0.71 0.00 78 1007.5
20190522141938 66 129 3.0 9.0 0.00 0.71 0.00 79 1007.4
20190522141436 65 161 4.0 16.0 0.00 0.71 0.00 79 1007.5
20190522140932 65 140 5.0 16.0 0.00 0.72 0.00 79 1007.5
20190522140444 65 119 4.0 16.0 0.00 0.72 0.00 79 1007.5
20190522135933 64 145 7.0 16.0 0.00 0.72 0.00 80 1007.4
20190522135430 64 156 5.0 17.0 0.00 0.72 0.00 80 1007.4
20190522134940 64 127 6.0 17.0 0.00 0.72 0.00 81 1007.4
20190522134436 64 137 6.0 17.0 0.00 0.72 0.00 82 1007.3
20190522133928 63 197 5.0 14.0 0.00 0.72 0.00 82 1007.3
20190522133427 63 196 3.0 16.0 0.00 0.72 0.00 84 1007.1
20190522132939 62 130 4.0 16.0 0.00 0.72 0.00 84 1007.2
20190522132437 62 153 6.0 12.0 0.00 0.72 0.00 85 1007.1
20190522131940 62 142 5.0 11.0 0.00 0.72 0.00 86 1007.2
20190522130926 61 101 6.0 10.0 0.00 0.72 0.00 88 1007.1
20190522130439 61 146 4.0 12.0 0.00 0.72 0.00 88 1007.3
20190522125930 61 121 6.0 11.0 0.00 0.72 0.00 88 1007.3
20190522124936 60 161 6.0 13.0 0.00 0.72 0.00 89 1007.1
20190522124433 60 148 5.0 13.0 0.00 0.72 0.00 90 1007.2
20190522123425 59 133 6.0 12.0 0.00 0.72 0.00 92 1007.2
20190522122432 59 78 5.0 10.0 0.00 0.72 0.00 93 1007.1
20190522121941 58 98 3.0 11.0 0.00 0.72 0.00 93 1007.3
20190522121439 58 116 5.0 13.0 0.00 0.72 0.00 94 1007.2
20190522120927 58 118 6.0 13.0 0.00 0.72 0.00 94 1007.1
20190522120438 58 123 3.0 11.0 0.00 0.72 0.00 94 1007.2
20190522115944 58 158 3.0 12.0 0.00 0.72 0.00 94 1007.3
20190522115443 58 231 5.0 12.0 0.00 0.72 0.00 94 1007.2
20190522114947 58 163 4.0 14.0 0.00 0.72 0.00 94 1007.1
20190522114451 58 162 6.0 14.0 0.00 0.72 0.00 94 1007.2
20190522113437 58 146 4.0 11.0 0.00 0.72 0.00 94 1007.1
20190522112927 58 115 4.0 13.0 0.00 0.72 0.00 94 1007.0
20190522112444 58 194 5.0 13.0 0.00 0.72 0.00 94 1006.9
20190522111433 58 140 4.0 11.0 0.00 0.72 0.00 93 1006.8
20190522110944 58 114 5.0 11.0 0.00 0.73 0.00 93 1006.8
20190522110434 58 102 3.0 11.0 0.00 0.73 0.00 94 1006.7
20190522105943 58 108 6.0 11.0 0.00 0.73 0.00 94 1006.6
20190522105439 58 146 3.0 11.0 0.00 0.73 0.00 94 1006.6
20190522104930 58 142 3.0 13.0 0.00 0.73 0.00 94 1006.5
20190522104432 58 81 5.0 13.0 0.00 0.73 0.00 94 1006.5
20190522103943 58 142 4.0 13.0 0.00 0.73 0.00 94 1006.5
20190522103442 58 136 4.0 11.0 0.00 0.73 0.00 94 1006.5
20190522102932 58 130 5.0 15.0 0.00 0.73 0.00 94 1006.5
20190522101433 58 124 6.0 17.0 0.00 0.73 0.00 94 1006.5
20190522100943 58 175 8.0 16.0 0.00 0.78 0.00 94 1006.7
20190522100436 58 126 5.0 12.0 0.00 0.78 0.00 94 1006.7
20190522095927 58 121 5.0 10.0 0.00 0.78 0.00 94 1006.7
20190522095425 58 134 5.0 14.0 0.00 0.78 0.00 94 1006.7
20190522094934 58 129 6.0 14.0 0.00 0.78 0.00 94 1006.7
20190522094430 58 182 5.0 14.0 0.00 0.78 0.00 94 1006.7
20190522093435 57 113 6.0 13.0 0.00 0.78 0.00 94 1006.7
20190522092924 57 126 5.0 15.0 0.00 0.78 0.00 94 1006.6
20190522092442 57 128 7.0 17.0 0.00 0.78 0.00 94 1006.5
20190522091934 57 149 7.0 17.0 0.00 0.78 0.00 94 1006.5
20190522091439 57 103 7.0 14.0 0.00 0.78 0.00 95 1006.4
20190522090926 57 124 5.0 17.0 0.00 1.04 0.00 95 1006.3
20190522090437 57 126 7.0 17.0 0.00 1.04 0.00 95 1006.3
20190522085928 57 140 6.0 11.0 0.00 1.04 0.00 94 1006.4
20190522085431 57 122 3.0 11.0 0.00 1.04 0.00 95 1006.4
20190522084943 57 116 5.0 13.0 0.00 1.04 0.00 95 1006.4
20190522084440 57 152 7.0 13.0 0.00 1.04 0.00 95 1006.5
20190522083929 57 143 6.0 12.0 0.00 1.04 0.00 95 1006.7
20190522083426 56 119 6.0 14.0 0.00 1.04 0.00 95 1006.7
20190522082938 56 136 6.0 14.0 0.00 1.04 0.00 95 1006.7
20190522082436 56 141 5.0 10.0 0.00 1.04 0.00 94 1006.8
20190522081926 56 165 4.0 12.0 0.00 1.04 0.00 94 1006.7
20190522081444 56 171 5.0 12.0 0.00 1.04 0.00 94 1006.6
20190522080933 56 164 3.0 11.0 0.00 1.16 0.00 94 1006.4
20190522080424 56 156 5.0 14.0 0.00 1.16 0.00 94 1006.3
20190522075934 56 128 6.0 15.0 0.00 1.16 0.00 94 1006.2
20190522074942 56 140 5.0 14.0 0.00 1.16 0.00 94 1006.1
20190522073927 56 160 6.0 16.0 0.00 1.16 0.00 94 1005.8
20190522073424 56 119 6.0 18.0 0.00 1.16 0.00 94 1005.7
20190522072935 56 134 7.0 18.0 0.00 1.16 0.00 94 1005.8
20190522072433 56 126 5.0 15.0 0.00 1.16 0.00 94 1006.0
20190522071928 56 152 6.0 13.0 0.00 1.16 0.00 94 1006.2
20190522071426 56 139 7.0 15.0 0.00 1.16 0.00 94 1006.2
20190522070936 56 122 9.0 16.0 0.00 1.32 0.00 94 1006.3
20190522065936 56 87 5.0 11.0 0.00 1.32 0.00 94 1006.2
20190522065434 56 128 5.0 14.0 0.00 1.32 0.00 94 1006.2
20190522064925 56 177 6.0 14.0 0.00 1.32 0.00 94 1006.2
20190522064442 56 146 7.0 14.0 0.00 1.32 0.00 94 1006.3
20190522063932 56 111 8.0 12.0 0.00 1.32 0.00 94 1006.3
20190522062936 56 134 5.0 13.0 0.00 1.32 0.00 93 1006.2
20190522062435 56 111 4.0 13.0 0.00 1.32 0.00 93 1005.9
20190522061424 56 128 5.0 11.0 0.00 1.32 0.00 93 1006.1
20190522060935 56 115 4.0 14.0 0.00 1.53 0.00 93 1006.2
20190522060425 56 110 5.0 16.0 0.00 1.53 0.00 93 1006.3
20190522055934 56 105 6.0 13.0 0.00 1.53 0.00 93 1006.3
20190522054924 56 129 7.0 14.0 0.00 1.53 0.00 93 1006.1
20190522054427 56 111 5.0 14.0 0.00 1.53 0.00 94 1006.1
20190522053938 56 75 4.0 17.0 0.00 1.53 0.00 94 1006.1
20190522053435 56 105 7.0 17.0 0.00 1.53 0.00 94 1006.0
20190522052925 56 94 6.0 17.0 0.00 1.53 0.00 94 1006.2
20190522052442 56 98 8.0 17.0 0.00 1.53 0.00 94 1006.2
20190522051934 56 139 5.0 15.0 0.00 1.53 0.00 95 1006.2
20190522051430 56 96 5.0 12.0 0.00 1.53 0.00 94 1006.4
20190522050941 56 122 6.0 12.0 0.00 1.68 1.53 95 1006.7
20190522050429 56 89 5.0 14.0 0.00 1.68 1.53 95 1006.5
20190522045932 56 148 7.0 14.0 0.00 1.68 1.53 95 1006.8
20190522045428 56 139 4.0 15.0 0.00 1.68 1.53 95 1006.6
20190522044437 55 153 6.0 13.0 0.00 1.68 1.53 95 1006.6
20190522043929 55 142 4.0 13.0 0.01 1.68 1.53 95 1006.6
20190522043428 55 102 6.0 18.0 0.02 1.68 1.53 95 1006.5
20190522042937 55 101 9.0 22.0 0.04 1.68 1.53 95 1006.2
20190522042434 55 122 8.0 22.0 0.06 1.68 1.53 95 1006.3
20190522041923 55 124 9.0 22.0 0.07 1.68 1.53 95 1006.1
20190522041441 55 105 10.0 22.0 0.09 1.68 1.53 95 1005.2
20190522040933 55 98 10.0 20.0 0.11 1.71 1.53 95 1005.7
20190522040428 55 94 5.0 21.0 0.14 1.71 1.53 95 1005.1
20190522035937 55 87 11.0 23.0 0.16 1.71 1.53 96 1004.9
20190522035432 55 53 15.0 32.0 0.16 1.71 1.53 95 1004.1
20190522034942 55 116 9.0 32.0 0.16 1.71 1.53 95 1003.3
20190522034439 55 53 19.0 30.0 0.17 1.71 1.53 95 1002.9
20190522033929 55 82 15.0 27.0 0.17 1.70 1.52 95 1003.6
20190522033429 54 98 16.0 28.0 0.18 1.69 1.51 95 1005.1
20190522032939 54 103 17.0 28.0 0.18 1.66 1.48 95 1006.3
20190522032434 54 95 13.0 22.0 0.20 1.65 1.47 95 1006.4
20190522031923 54 61 9.0 24.0 0.19 1.63 1.45 95 1006.9
20190522030929 54 109 10.0 19.0 0.21 1.60 1.42 95 1007.4
20190522030440 54 90 7.0 19.0 0.20 1.57 1.39 94 1007.2
20190522025932 54 103 11.0 19.0 0.19 1.55 1.37 94 1007.1
20190522025429 54 96 11.0 22.0 0.21 1.55 1.37 94 1006.9
20190522024938 54 80 9.0 23.0 0.23 1.55 1.37 94 1007.6
20190522024435 54 69 7.0 13.0 0.23 1.54 1.36 94 1008.0
20190522023924 54 115 6.0 13.0 0.25 1.53 1.35 94 1008.3
20190522023443 54 86 7.0 14.0 0.31 1.51 1.33 94 1008.6
20190522022435 54 80 5.0 12.0 0.38 1.45 1.27 93 1008.0
20190522021423 54 89 6.0 10.0 0.38 1.41 1.23 93 1008.5
20190522020933 54 92 4.0 8.0 0.37 1.40 1.21 93 1008.7
20190522020423 54 71 4.0 8.0 0.37 1.38 1.19 93 1009.0
20190522015935 54 111 3.0 8.0 0.35 1.36 1.17 93 1009.2
20190522015434 54 132 3.0 10.0 0.34 1.35 1.16 92 1009.1
20190522014926 54 128 3.0 10.0 0.32 1.33 1.14 92 1009.2
20190522014423 54 175 4.0 15.0 0.30 1.31 1.12 91 1009.5
20190522013932 54 229 4.0 15.0 0.28 1.29 1.10 91 1009.5
20190522013429 54 202 9.0 15.0 0.18 1.19 1.00 90 1010.1
20190522012939 54 186 8.0 20.0 0.15 1.16 0.97 89 1006.9